CAPE
0 0 4 31 63 88 27 0 18 65 53 121 185 238 206 278 166 118 101 60 14 0 0 0 0 1 2 0 0 0 11 0 3 15 14 34 42 13 4 0 0 0 0
0 0 2 10 52 29 31 0 26 44 103 119 145 173 202 185 133 117 50 28 10 0 0 0 6 1 0 0 3 1 0 11 31 32 49 55 45 3 0 0 0 0 0
0 0 0 0 19 42 10 0 0 45 135 202 137 111 129 138 61 69 63 19 2 1 2 0 4 0 0 9 4 5 2 17 18 34 38 22 0 0 0 0 0 0 0
0 0 0 0 0 29 42 15 5 31 63 81 164 89 126 162 80 71 35 20 1 0 1 0 1 5 15 5 14 10 19 17 10 3 3 1 0 0 0 0 0 0 0
0 0 0 0 0 3 69 7 0 27 38 51 85 87 118 161 109 95 61 18 2 11 6 6 6 23 24 21 26 21 9 10 1 0 0 0 0 0 0 0 0 0 0
0 0 0 0 6 6 0 0 0 0 42 0 0 12 40 27 20 42 51 45 13 24 17 1 7 10 13 15 5 5 5 6 0 0 0 0 0 0 0 0 0 0 0
0 0 0 0 7 0 0 0 0 0 0 0 0 0 0 6 23 33 28 20 18 4 1 0 0 0 1 2 0 0 0 0 0 0 0 0 0 0 0 0 0 0 0
0 0 0 0 0 0 0 0 0 0 0 0 0 0 0 0 9 13 4 0 1 6 0 0 1 0 0 0 0 0 0 0 0 0 0 0 0 0 0 0 10 0 0
0 0 0 0 0 0 0 0 0 0 0 0 0 0 0 0 0 0 0 2 2 0 0 0 0 0 0 0 0 0 0 0 0 0 0 0 0 0 0 0 0 0 0
0 0 0 0 0 0 0 0 0 0 0 0 0 0 0 0 0 0 0 0 0 0 0 0 0 0 0 0 0 0 0 0 0 0 0 0 0 0 0 0 0 0 0
0 0 0 0 0 0 0 0 0 0 0 0 0 0 0 0 0 0 0 0 0 0 0 0 0 0 0 0 0 0 0 0 0 0 0 0 0 0 0 0 0 0 0
0 0 0 0 0 0 0 0 0 0 0 0 0 0 0 0 0 0 0 0 0 0 0 0 0 0 0 0 0 0 0 0 0 0 0 0 0 0 0 0 0 0 0
0 0 0 0 0 0 0 0 0 0 28 0 0 0 0 0 0 0 0 0 0 0 0 0 0 0 0 0 0 0 0 0 0 0 0 0 0 0 0 0 0 0 0
0 0 0 0 0 0 0 0 0 0 0 0 0 0 0 0 0 0 0 0 0 0 0 0 0 0 0 0 0 0 0 0 0 0 0 0 0 0 0 0 0 0 0
0 0 0 0 0 0 0 0 0 0 0 0 0 0 0 0 0 0 0 0 0 0 0 0 0 0 0 0 0 0 0 0 0 0 0 0 0 0 0 0 0 0 0
0 0 0 0 0 0 0 0 0 0 0 0 0 0 0 0 0 0 0 0 0 0 0 0 0 0 0 0 0 0 0 0 0 0 0 0 0 0 0 0 0 0 0
0 0 0 0 0 0 0 0 0 0 0 0 0 0 0 0 0 0 0 0 0 0 0 0 0 0 0 0 0 0 0 0 0 0 0 0 0 0 0 0 0 0 0
0 0 0 0 0 0 0 0 0 0 0 0 0 0 0 0 0 0 0 0 0 0 0 0 0 0 0 0 0 0 0 0 0 0 0 0 0 0 0 0 0 0 0
0 0 0 0 0 0 0 0 0 0 0 0 0 0 0 0 0 0 0 0 0 0 0 0 0 0 0 0 0 0 0 0 0 0 0 0 0 0 0 0 0 0 0
0 0 0 0 0 0 0 0 0 0 0 0 0 0 0 0 0 0 0 0 0 0 0 0 0 0 0 0 0 0 0 0 0 0 0 0 0 0 0 0 0 0 0
14 0 0 0 0 0 0 0 0 0 0 0 0 0 0 0 0 0 0 0 0 0 0 0 0 0 0 0 0 0 0 0 0 0 0 0 0 0 0 0 0 0 0
86 13 0 0 0 0 0 0 0 0 0 0 0 0 0 0 0 0 0 0 0 0 0 0 0 0 0 0 0 0 0 0 0 0 0 0 0 0 0 0 0 0 0
208 132 14 0 0 0 0 0 0 0 0 0 0 0 0 0 0 0 0 0 0 0 0 0 0 0 0 0 0 0 0 0 0 0 0 0 0 0 0 0 0 0 0
266 244 171 19 0 0 0 0 0 0 0 0 0 0 0 0 0 0 0 0 0 0 0 0 0 0 0 0 0 0 0 0 0 0 0 0 0 0 0 0 0 0 0
308 314 233 198 80 10 1 0 0 0 0 0 0 0 0 0 0 0 0 0 0 0 0 0 0 0 0 0 0 0 0 0 0 0 0 0 0 0 0 0 0 0 0
115 55 80 165 271 232 182 80 104 59 3 0 0 0 0 0 0 0 0 0 0 0 0 0 0 0 0 0 0 0 0 0 0 0 0 0 0 0 0 0 0 0 0
CIN
0 0 -5 -20 -29 -31 -36 0 -31 -24 -35 -23 -30 -30 -39 -31 -33 -35 -62 -66 -55 -12 0 0 0 0 0 0 0 0 -64 -36 -33 -6 -32 -25 -43 -57 -70 0 0 0 0
0 0 -5 -17 -30 -43 -67 0 -48 -32 -23 -18 -28 -31 -35 -33 -32 -47 -75 -80 -101 0 0 0 -71 0 -0 0 -66 -18 -63 -40 -38 -24 -5 -0 -22 -58 0 0 0 0 0
0 0 -4 0 -26 -29 -63 0 -3 -50 -26 -15 -29 -26 -22 -31 -54 -56 -67 -70 -75 -70 -64 0 -35 0 -27 -32 -42 -16 -47 -35 -30 -34 -31 -28 -14 -3 0 0 0 0 0
0 0 0 0 0 -30 -31 -41 -88 -58 -40 -39 -24 -34 -27 -24 -37 -58 -83 -85 -89 -25 -40 0 0 -51 -60 -28 -28 -41 -53 -40 -46 -48 -49 -23 0 0 0 0 0 0 0
0 0 0 0 0 -2 -24 -35 0 -62 -55 -48 -59 -52 -41 -24 -25 -31 -53 -68 -58 -33 -24 -31 -27 -36 -28 -33 -52 -59 -66 -54 -16 0 0 0 0 0 0 0 0 0 0
0 0 0 0 -9 -11 0 0 0 -20 -43 -0 0 -93 -75 -65 -64 -39 -26 -33 -45 -17 -23 -30 -42 -23 -33 -60 -70 -79 -73 -71 0 0 0 0 0 0 0 0 0 0 0
0 0 0 0 -5 0 0 0 0 0 0 0 0 0 0 -102 -64 -66 -53 -35 -47 -51 -51 0 0 0 -40 -49 0 0 0 0 0 0 0 0 0 0 0 0 0 0 0
0 0 0 0 0 0 0 0 0 0 0 0 0 0 0 0 -65 -65 -45 -47 -16 -86 0 0 -43 0 0 0 0 0 0 0 0 0 0 0 0 0 0 0 -44 0 0
0 0 0 0 0 0 0 0 0 0 0 0 0 0 0 0 0 0 0 -42 -131 0 0 0 0 0 0 0 0 0 0 0 0 0 0 0 0 0 0 0 0 0 0
0 0 0 0 0 0 0 0 0 0 0 0 0 0 0 0 0 0 0 0 0 0 0 0 0 0 0 0 0 0 0 0 0 0 0 0 0 0 0 0 0 0 0
0 0 0 0 0 0 0 0 0 0 0 0 0 0 0 0 0 0 0 0 0 0 0 0 0 0 0 0 0 0 0 0 0 0 0 0 0 0 0 0 0 0 0
0 0 0 0 0 0 0 0 0 0 0 0 0 0 0 0 0 0 0 0 0 0 0 0 0 0 0 0 0 0 0 0 0 0 0 0 0 0 0 0 0 0 0
0 0 0 0 0 0 0 0 0 0 -370 0 0 0 0 0 0 0 0 0 0 0 0 0 0 0 0 0 0 0 0 0 0 0 0 0 0 0 0 0 0 0 0
0 0 0 0 0 0 0 0 0 0 0 -1 0 0 0 0 0 0 0 0 0 0 0 0 0 0 0 0 0 0 0 0 0 0 0 0 0 0 0 0 0 0 0
0 0 0 0 0 0 0 0 0 0 0 0 0 0 0 0 0 0 0 0 0 0 0 0 0 0 0 0 0 0 0 0 0 0 0 0 0 0 0 0 0 0 0
0 0 0 0 0 0 0 0 0 0 0 0 0 0 0 0 0 0 0 0 0 0 0 0 0 0 0 0 0 0 0 0 0 0 0 0 0 0 0 0 0 0 0
0 0 0 0 0 0 0 0 0 0 0 0 0 0 0 0 0 0 0 0 0 0 0 0 0 0 0 0 0 0 0 0 0 0 0 0 0 0 0 0 0 0 0
0 0 0 0 0 0 0 0 0 0 0 0 0 0 0 0 0 0 0 0 0 0 0 0 0 0 0 0 0 0 0 0 0 0 0 0 0 0 0 0 0 0 0
0 0 0 0 0 0 0 0 0 0 0 0 0 0 0 0 0 0 0 0 0 0 0 0 0 0 0 0 0 0 0 0 0 0 0 0 0 0 0 0 0 0 0
0 0 0 0 0 0 0 0 0 0 0 0 0 0 0 0 0 0 0 0 0 0 0 0 0 0 0 0 0 0 0 0 0 0 0 0 0 0 0 0 0 0 0
-322 0 0 0 0 0 0 0 0 0 0 0 0 0 0 0 0 0 0 0 0 0 0 0 0 0 0 0 0 0 0 0 0 0 0 0 0 0 0 0 0 0 0
-220 -232 0 0 0 0 0 0 0 0 0 0 0 0 0 0 0 0 0 0 0 0 0 0 0 0 0 0 0 0 0 0 0 0 0 0 0 0 0 0 0 0 0
-136 -217 -327 0 0 0 0 0 0 0 0 0 0 0 0 0 0 0 0 0 0 0 0 0 0 0 0 0 0 0 0 0 0 0 0 0 0 0 0 0 0 0 0
-85 -96 -166 -289 0 0 0 0 0 0 0 0 0 0 0 0 0 0 0 0 0 0 0 0 0 0 0 0 0 0 0 0 0 0 0 0 0 0 0 0 0 0 0
-76 -69 -87 -107 -175 -252 -101 -2 0 0 0 0 0 0 0 0 0 0 0 0 0 0 0 0 0 0 0 0 0 0 0 0 0 0 0 0 0 0 0 0 0 0 0
-106 -113 -111 -131 -110 -129 -159 -169 -167 -200 -70 0 0 0 0 0 0 0 0 0 0 0 0 0 0 0 0 0 0 0 0 0 0 0 0 0 0 0 0 0 0 0 0
Wind_Speed
18 18 18 19 21 22 24 24 22 24 26 27 28 27 28 27 24 19 4 4 5 6 5 5 6 6 9 7 8 13 6 8 7 5 8 18 23 15 27 26 26 26 25
18 19 19 21 22 23 26 25 22 25 26 28 29 30 33 33 10 26 5 5 5 7 7 5 5 7 7 7 8 8 4 7 7 8 8 14 5 14 28 26 25 22 21
20 20 21 21 22 22 24 25 23 25 25 24 28 28 27 27 33 12 7 3 3 1 1 1 6 9 7 6 8 10 6 8 15 15 14 11 19 27 25 23 25 22 18
21 21 21 21 22 23 23 25 28 28 29 21 20 28 30 30 31 27 22 10 11 3 3 4 6 8 9 10 14 15 19 15 9 9 14 24 27 24 23 22 22 20 7
20 21 21 22 23 24 25 27 29 30 28 23 19 28 26 26 28 28 30 30 19 14 4 27 17 32 18 28 36 32 25 27 20 28 28 28 27 25 24 17 15 8 10
20 21 22 23 24 25 26 27 28 27 26 29 30 29 25 25 26 22 29 31 31 32 33 26 19 31 37 38 33 31 27 31 30 28 28 23 25 23 15 14 10 7 9
21 21 21 24 24 27 27 27 27 28 29 29 27 30 31 31 33 25 29 25 34 32 36 33 35 33 35 33 30 27 27 30 28 27 26 24 21 17 13 10 7 8 13
22 21 22 24 26 27 27 27 27 30 29 30 31 31 31 31 32 32 31 33 33 33 34 33 29 31 30 31 31 29 12 3 3 9 18 11 10 10 8 7 8 16 20
22 22 23 26 26 27 27 27 27 28 28 29 29 30 31 29 32 32 32 32 32 32 32 32 32 30 32 31 30 27 2 3 6 10 12 12 13 13 13 16 21 22 21
24 24 23 25 26 26 26 27 27 26 26 27 28 28 28 29 27 30 30 30 31 31 30 31 30 30 28 28 22 6 3 5 8 10 12 14 14 16 19 19 15 19 22
26 25 24 23 25 25 25 26 26 27 27 26 26 26 26 27 27 28 27 27 26 25 25 24 24 20 16 12 18 14 10 10 11 11 12 14 18 18 17 19 21 22 24
25 24 25 23 22 23 22 22 22 25 26 25 25 25 25 25 24 24 23 24 24 23 23 21 19 18 16 14 14 12 12 10 10 13 15 16 17 19 19 20 23 25 25
25 23 24 23 21 22 22 22 22 24 26 26 25 24 24 24 25 26 25 24 24 24 23 22 20 17 14 11 10 8 9 10 12 13 14 16 18 18 20 22 24 25 27
24 20 21 22 20 20 21 22 23 24 25 24 22 22 21 22 22 23 22 19 19 18 18 17 15 12 9 6 7 9 10 11 11 10 13 15 18 20 24 24 27 29 30
20 16 16 17 16 17 18 20 21 24 24 24 23 21 19 19 19 19 19 17 14 14 13 11 10 8 7 5 5 7 9 9 9 10 12 15 19 23 25 26 28 27 28
15 12 14 13 9 10 10 8 6 13 21 23 19 17 17 15 15 16 17 16 13 12 8 7 6 5 4 3 3 5 8 7 8 10 14 18 20 24 26 25 25 26 28
13 10 11 13 9 7 6 6 8 5 1 11 16 13 13 12 14 14 16 17 14 9 4 4 3 4 3 1 3 4 5 6 8 11 14 16 21 20 22 24 24 25 26
14 13 11 11 10 8 8 7 6 7 7 7 3 4 2 9 14 14 14 12 9 7 6 6 4 1 2 4 2 2 4 5 8 11 14 17 19 19 21 21 23 24 25
16 15 12 9 10 9 7 7 7 8 8 7 5 5 4 3 9 13 14 10 11 10 9 8 4 5 4 3 1 1 2 5 8 10 12 14 16 15 18 19 21 23 24
14 16 14 13 10 10 8 8 8 6 8 9 10 11 6 7 6 9 12 9 8 8 8 5 5 4 2 1 1 1 3 5 7 9 12 13 15 15 16 18 20 22 25
11 14 16 14 14 13 11 10 9 9 8 9 10 10 10 11 11 11 12 11 9 9 8 6 6 5 3 3 1 1 2 4 6 9 10 10 13 13 14 16 19 22 25
9 11 15 15 14 14 14 13 14 13 12 11 10 10 13 11 11 13 14 12 9 6 7 9 9 7 7 6 4 2 1 3 6 7 9 10 12 12 13 16 19 22 25
8 9 12 14 14 14 12 15 17 15 15 15 15 14 15 14 14 12 12 12 12 8 6 7 9 8 7 6 4 3 1 3 6 6 6 7 10 11 13 16 19 23 26
8 8 9 12 13 14 15 16 17 17 19 17 17 17 17 17 17 14 12 11 10 10 7 7 7 8 8 6 4 2 3 5 6 6 7 8 10 11 14 17 20 23 25
11 10 9 10 12 13 12 13 14 14 17 18 15 14 13 13 13 12 11 11 10 10 8 5 6 6 7 8 6 4 5 6 6 8 8 9 10 12 14 17 20 22 24
17 16 16 15 13 12 12 12 14 15 13 13 12 11 10 10 10 10 10 10 10 11 7 6 5 7 7 5 4 6 4 8 9 8 9 8 10 12 14 16 19 22 24
Wind_Direction
78 79 81 90 86 84 82 100 120 113 107 113 135 161 133 109 106 98 150 136 174 185 197 175 179 148 186 167 174 178 170 214 146 197 212 207 204 222 207 206 186 200 196
101 88 91 81 84 92 88 90 118 114 119 106 133 147 138 134 92 105 127 160 161 189 206 200 161 147 147 168 128 195 188 229 201 197 209 221 251 113 172 168 197 167 166
106 103 103 95 99 107 101 95 119 130 135 138 141 147 163 166 141 198 195 162 192 154 329 117 203 137 178 185 200 198 189 208 215 221 232 242 222 173 178 169 197 169 160
107 102 105 107 111 117 108 97 98 117 115 148 160 148 143 146 147 118 104 82 76 348 265 111 175 180 130 206 205 197 203 217 230 231 233 187 181 201 202 152 173 212 53
108 102 107 114 121 113 110 101 101 109 128 149 158 135 153 150 155 122 130 129 89 186 197 154 102 167 186 180 156 175 190 189 205 152 166 172 172 177 164 136 138 83 0
109 106 108 121 127 116 111 115 115 134 139 124 104 115 153 153 152 91 125 151 146 155 154 178 186 173 134 160 170 166 173 144 150 154 160 122 151 153 111 128 116 74 28
114 111 109 128 119 127 127 126 130 128 115 106 83 92 120 132 130 86 93 140 122 152 142 122 153 166 161 165 171 174 175 153 141 143 145 138 137 128 113 123 76 22 352
121 117 118 134 127 142 145 139 130 121 124 125 123 124 130 126 118 118 113 127 132 140 150 153 172 165 170 169 167 167 198 52 16 135 132 94 90 51 56 33 13 346 343
132 127 124 139 134 139 137 140 139 119 122 126 131 131 128 138 119 118 125 134 138 141 148 152 153 160 154 139 138 127 30 7 359 31 43 34 21 18 9 349 335 338 343
147 140 131 137 139 139 136 138 151 148 136 129 132 135 135 132 147 122 119 118 129 134 130 143 135 140 164 167 117 73 350 328 6 358 346 351 4 356 349 353 6 357 354
154 147 142 136 141 139 137 143 142 151 154 147 141 138 141 144 146 141 136 126 118 113 117 120 122 110 96 80 108 94 70 61 50 27 11 6 345 351 1 1 2 2 356
154 147 149 142 138 140 132 133 134 142 155 159 147 145 151 150 144 138 128 132 136 129 130 118 111 109 100 84 86 78 70 53 28 10 1 8 9 5 9 9 3 359 359
157 149 150 147 139 141 141 141 141 147 160 159 152 146 149 153 156 154 148 149 144 142 135 128 117 111 101 81 68 41 18 8 2 5 8 9 10 9 5 3 2 1 1
158 147 146 148 142 142 143 147 150 154 159 158 148 148 146 146 149 149 143 126 122 121 116 113 111 102 92 65 10 352 355 1 2 17 16 14 10 6 2 1 357 355 353
156 148 149 146 144 143 146 149 153 163 164 162 162 156 149 149 150 147 144 135 118 113 109 104 103 100 104 77 27 18 5 4 21 25 18 10 0 357 357 355 353 360 0
157 155 158 156 154 149 145 140 273 148 165 169 162 155 157 153 150 151 154 149 137 126 112 116 113 113 123 95 37 8 356 18 18 18 12 5 3 1 358 4 5 4 4
172 168 169 168 179 179 175 170 164 285 224 155 169 164 164 158 161 159 160 161 156 149 158 152 150 154 152 71 0 357 4 15 30 15 9 7 2 4 9 6 9 8 10
184 178 177 174 180 190 191 197 199 188 187 184 247 186 129 165 171 165 162 162 176 187 198 198 202 228 305 319 345 16 29 28 13 9 6 6 10 9 8 13 12 12 14
186 188 195 192 183 189 188 192 200 200 197 202 216 268 275 291 171 174 169 180 187 195 204 214 260 296 305 306 320 50 31 8 10 9 14 9 13 16 11 17 16 18 19
197 198 204 209 224 207 198 197 198 215 211 209 204 202 236 268 255 195 188 196 211 223 219 234 273 286 274 198 119 37 19 15 17 17 12 15 19 23 21 18 20 20 13
211 203 206 232 224 229 227 221 219 206 210 214 227 219 215 224 232 217 214 222 214 238 245 247 256 251 223 209 176 81 33 30 15 7 20 23 26 27 31 28 21 15 14
220 214 203 213 236 233 243 247 248 244 232 244 246 232 215 234 241 235 225 226 239 229 246 248 251 234 208 199 195 179 108 23 16 12 27 40 36 33 30 20 17 18 14
215 214 220 225 231 236 244 257 264 256 248 244 247 253 226 240 259 244 228 225 239 251 231 245 234 229 231 220 200 179 141 47 47 48 42 46 31 32 27 22 19 14 12
219 220 220 223 233 237 234 239 261 263 271 272 259 248 250 251 251 243 240 229 223 244 243 246 240 229 196 196 194 149 93 66 50 51 61 64 43 36 32 25 18 17 15
273 264 254 235 234 232 243 240 235 251 265 281 274 257 250 253 252 244 240 240 229 222 244 247 210 205 192 189 175 138 108 78 70 74 66 61 50 38 31 21 20 20 17
273 276 278 287 254 244 244 261 270 281 276 273 276 274 254 244 243 243 243 243 235 229 242 254 210 178 161 153 144 122 92 99 92 76 68 59 44 33 23 23 22 20 19